Powrót do katalogu

STARLINK-35570

AktywnyŁącznośćVLEO
NORAD 66090·PAYLOAD·🇺🇸 United States

Wystrzelony Oct 19, 2025 z Vandenberg Space Force Base

Loading…

Następne Przeloty (najbliższe 24 godziny)

TLE

ŚwieżeSource: CelesTrak SupGP

Epoka: Sep 14, 2026, 20:37 UTC

1 66090C 25236E   26257.85951389 -.00113240  00000+0 -33450-2 0  2575
2 66090  53.1588 303.9139 0001402  86.6396 339.1722 15.34452665    15

Śledź STARLINK-35570 w czasie rzeczywistym z AllMySat

Download on the App Store